Location: Martz Observatory
(42.0083°N, 79.0667°W)
Time: 03:07:10
(UTC-04:00)

Cosmos 1689 Rocket - Pass Details

Date: 26 May 2018
Orbit: 386 x 408 km, 97.4° (Epoch: 21 June)

Event Time Altitude Azimuth Distance (km) Brightness Sun altitude
Exits shadow 02:34:12 37° 20° (NNE) 659 3.7 -24.1°
Drops below altitude 10° 02:36:21 10° 357° (N) 1,475 5.9 -24.0°
Sets 02:38:21 0° 353° (N) 2,338 7.0 -23.9°
